Montpelier, VT

10:10 AM EST on January 22, 2018 (GMT -0500)
Knapp State

Weather History for KMPV - March, 2013

Change the Weather History Date:

Friday, March 22, 2013

  Actual Average Record
Temperature  
Mean Temperature 20 °F 31 °F  
Max Temperature 32 °F 41 °F 78 °F (2012)
Min Temperature 8 °F 21 °F 2 °F (1986)
Degree Days  
Heating Degree Days 45 34  
Month to date heating degree days 776 834  
Since 1 July heating degree days 6325 6742  
Cooling Degree Days 0 0  
Month to date cooling degree days 0 0  
Year to date cooling degree days 0 0  
Moisture  
Dew Point 16 °F    
Average Humidity 75    
Maximum Humidity 100    
Minimum Humidity 49    
Precipitation  
Precipitation T in 0.09 in 0.81 in (1999)
Month to date precipitation 0.73 1.66  
Year to date precipitation 2.97 6.15  
Sea Level Pressure  
Sea Level Pressure 29.70 in    
Wind  
Wind Speed 4 mph (NW)    
Max Wind Speed 17 mph    
Max Gust Speed 24 mph    
Visibility 7 miles    
Events Snow    
T = Trace of Precipitation, MM = Missing Value Source: NWS Daily Summary

Daily Weather History Graph

Daily Weather History Graph

Search for Another Location

Airport or City:

Trip Planner

Search our weather history database for the weather conditions in past years. The results will help you decide how hot, cold, wet, or windy it might be!

Date:

Astronomy

Mar. 22, 2013 Rise Set
Actual Time 6:49 AM EDT 7:05 PM EDT
Civil Twilight 6:20 AM EDT 7:34 PM EDT
Nautical Twilight 5:46 AM EDT 8:08 PM EDT
Astronomical Twilight 5:11 AM EDT 8:43 PM EDT
Moon 2:21 PM EDT 3:57 AM EDT
Length of Visible Light 13h 13m
Length of Day
12h 16m
Waxing Gibbous, 77% of the Moon is Illuminated
Mar 22
Waxing Gibbous
Mar 27
Full
Apr 3
Last Quarter
Apr 10
New
Apr 18
First Quarter

Hourly Weather History & Observations

Time (EDT) Temp. Windchill Dew Point Humidity Pressure Visibility Wind Dir Wind Speed Gust Speed Precip Events Conditions
12:51 AM 21.9 °F 15.7 °F 16.0 °F 78% 29.70 in 10.0 mi West 4.6 mph - N/A   Clear
1:51 AM 19.0 °F - 15.1 °F 85% 29.70 in 10.0 mi Calm Calm - N/A   Clear
2:51 AM 14.0 °F 8.2 °F 12.9 °F 95% 29.70 in 10.0 mi SSW 3.5 mph - N/A   Clear
3:51 AM 12.0 °F - 10.0 °F 92% 29.70 in 10.0 mi Calm Calm - N/A   Clear
4:51 AM 10.9 °F - 10.0 °F 96% 29.70 in 10.0 mi Calm Calm - N/A   Clear
5:26 AM 10.4 °F - 8.6 °F 92% 29.64 in 10.0 mi Calm Calm - N/A   Mostly Cloudy
5:40 AM 10.4 °F 4.0 °F 10.4 °F 100% 29.64 in 10.0 mi South 3.5 mph - N/A   Scattered Clouds
5:51 AM 10.9 °F - 9.0 °F 92% 29.70 in 10.0 mi Calm Calm - N/A   Scattered Clouds
6:51 AM 9.0 °F - 8.1 °F 96% 29.71 in 10.0 mi Calm Calm - N/A   Clear
7:51 AM 12.0 °F 5.9 °F 10.9 °F 95% 29.72 in 5.0 mi South 3.5 mph - N/A   Clear
8:51 AM 15.1 °F - 14.0 °F 95% 29.73 in 10.0 mi Calm Calm - N/A   Clear
9:51 AM 21.9 °F 17.2 °F 16.0 °F 78% 29.72 in 10.0 mi NE 3.5 mph - N/A   Clear
10:51 AM 26.1 °F 20.5 °F 15.1 °F 63% 29.71 in 10.0 mi NE 4.6 mph - N/A   Clear
11:51 AM 28.0 °F 21.7 °F 16.0 °F 61% 29.70 in 10.0 mi North 5.8 mph - N/A   Mostly Cloudy
12:51 PM 30.0 °F - 14.0 °F 51% 29.69 in 10.0 mi Calm Calm - 0.00 in   Overcast
1:49 PM 28.4 °F 21.2 °F 17.6 °F 64% 29.64 in 1.8 mi WNW 6.9 mph - 0.00 in Snow Light Snow
1:51 PM 28.0 °F 24.2 °F 18.0 °F 66% 29.70 in 1.5 mi NW 3.5 mph - 0.00 in Snow Light Snow
1:58 PM 28.4 °F 20.4 °F 17.6 °F 64% 29.64 in 3.0 mi WNW 8.1 mph - 0.00 in Snow Light Snow
2:09 PM 28.4 °F 22.2 °F 19.4 °F 69% 29.64 in 2.0 mi NNW 5.8 mph 16.1 mph 0.00 in Snow Light Snow
2:18 PM 30.2 °F 21.3 °F 19.4 °F 64% 29.63 in 4.0 mi North 10.4 mph - 0.00 in Snow Light Snow
2:27 PM 28.4 °F 20.4 °F 17.6 °F 64% 29.63 in 1.8 mi North 8.1 mph - 0.00 in Snow Light Snow
2:31 PM 28.4 °F 21.2 °F 19.4 °F 69% 29.63 in 3.0 mi NNW 6.9 mph - 0.00 in Snow Light Snow
2:51 PM 30.0 °F 25.2 °F 17.1 °F 59% 29.69 in 10.0 mi NW 4.6 mph - 0.00 in   Overcast
3:51 PM 30.9 °F 23.5 °F 16.0 °F 54% 29.69 in 10.0 mi NW 8.1 mph - N/A   Overcast
4:51 PM 30.0 °F 21.7 °F 17.1 °F 59% 29.70 in 10.0 mi NNW 9.2 mph - N/A   Overcast
5:29 PM 28.4 °F 23.3 °F 21.2 °F 74% 29.65 in 1.8 mi NW 4.6 mph - 0.00 in Snow Light Snow
5:38 PM 28.4 °F 22.2 °F 21.2 °F 74% 29.65 in 3.0 mi NW 5.8 mph - 0.00 in Snow Light Snow
5:51 PM 28.0 °F 19.3 °F 19.9 °F 72% 29.71 in 10.0 mi NW 9.2 mph - 0.00 in   Overcast
6:51 PM 27.0 °F 20.5 °F 19.0 °F 72% 29.74 in 10.0 mi NW 5.8 mph - 0.00 in   Overcast
7:32 PM 26.6 °F 15.2 °F 21.2 °F 80% 29.70 in 2.0 mi NW 13.8 mph 24.2 mph 0.00 in Snow Light Snow
7:35 PM 24.8 °F 12.9 °F 21.2 °F 86% 29.70 in 1.2 mi NW 13.8 mph 24.2 mph 0.00 in Snow Light Snow
7:44 PM 24.8 °F 12.9 °F 21.2 °F 86% 29.70 in 2.0 mi NW 13.8 mph 20.7 mph 0.00 in Snow Light Snow
7:51 PM 25.0 °F 13.6 °F 19.9 °F 81% 29.76 in 7.0 mi NW 12.7 mph 21.9 mph 0.00 in Snow Light Snow
8:51 PM 23.0 °F 13.1 °F 18.0 °F 81% 29.80 in 10.0 mi NW 9.2 mph 18.4 mph 0.00 in   Mostly Cloudy
9:51 PM 21.9 °F 14.5 °F 17.1 °F 82% 29.78 in 10.0 mi NW 5.8 mph - N/A   Overcast
10:03 PM 21.2 °F - 17.6 °F 86% 29.72 in 8.0 mi Calm Calm - 0.00 in Snow Light Snow
10:51 PM 23.0 °F - 19.0 °F 85% 29.77 in 9.0 mi Calm Calm - 0.00 in   Overcast
11:13 PM 21.2 °F 16.4 °F 19.4 °F 93% 29.72 in 10.0 mi NNW 3.5 mph - N/A   Overcast
11:37 PM 23.0 °F - 19.4 °F 86% 29.72 in 7.0 mi Calm Calm - 0.00 in Snow Light Snow
11:51 PM 23.0 °F 18.4 °F 19.0 °F 85% 29.77 in 9.0 mi WNW 3.5 mph - 0.00 in   Overcast